Previsão horária em Abernethy

Hoje, 9 Maio, Domingo

Tempo Temperatura Precipitação Vento Pressão Humidade
00:00 +6°C° 0.3 mm 1 m/s 730 mmHg 97%
01:00 +6°C° 0 mm 1 m/s 729 mmHg 97%
02:00 +6°C° 0 mm 1 m/s 729 mmHg 97%
03:00 +6°C° 0 mm 1 m/s 729 mmHg 97%
04:00 +7°C° 0 mm 1 m/s 729 mmHg 96%
05:00 +7°C° 0 mm 1 m/s 728 mmHg 95%
06:00 +8°C° 0 mm 1 m/s 728 mmHg 94%
07:00 +8°C° 0 mm 1 m/s 728 mmHg 91%
08:00 +8°C° 0 mm 2 m/s 729 mmHg 89%
09:00 +9°C° 0 mm 2 m/s 729 mmHg 87%
10:00 +10°C° 0.2 mm 3 m/s 729 mmHg 85%
11:00 +10°C° 0.2 mm 4 m/s 729 mmHg 82%
12:00 +10°C° 0.2 mm 5 m/s 729 mmHg 80%
13:00 +10°C° 0.5 mm 5 m/s 729 mmHg 80%
14:00 +12°C° 0.5 mm 5 m/s 729 mmHg 79%
15:00 +11°C° 0.5 mm 6 m/s 728 mmHg 79%
16:00 +12°C° 0.4 mm 5 m/s 729 mmHg 79%
17:00 +10°C° 0.4 mm 5 m/s 729 mmHg 79%
18:00 +10°C° 0.4 mm 5 m/s 729 mmHg 80%
19:00 +10°C° 0 mm 4 m/s 729 mmHg 83%
20:00 +9°C° 0 mm 3 m/s 729 mmHg 86%
21:00 +7°C° 0 mm 2 m/s 729 mmHg 89%
22:00 +7°C° 0 mm 2 m/s 730 mmHg 89%
23:00 +8°C° 0 mm 1 m/s 730 mmHg 90%

Amanhã, 10 Maio, Segunda-feira

Tempo Temperatura Precipitação Vento Pressão Humidade
00:00 +8°C° 0 mm 1 m/s 730 mmHg 90%
01:00 +8°C° 0 mm 1 m/s 730 mmHg 91%
02:00 +8°C° 0 mm 1 m/s 730 mmHg 91%
03:00 +8°C° 0 mm 1 m/s 730 mmHg 92%
04:00 +8°C° 0 mm 1 m/s 730 mmHg 91%
05:00 +9°C° 0 mm 1 m/s 730 mmHg 91%
06:00 +9°C° 0 mm 1 m/s 730 mmHg 91%
07:00 +10°C° 0.2 mm 1 m/s 730 mmHg 87%
08:00 +11°C° 0.2 mm 1 m/s 730 mmHg 84%
09:00 +12°C° 0.2 mm 2 m/s 730 mmHg 80%
10:00 +12°C° 0.5 mm 2 m/s 730 mmHg 77%
11:00 +12°C° 0.5 mm 3 m/s 730 mmHg 75%
12:00 +12°C° 0.5 mm 4 m/s 730 mmHg 72%
13:00 +12°C° 0.6 mm 4 m/s 731 mmHg 75%
14:00 +11°C° 0.6 mm 4 m/s 731 mmHg 79%
15:00 +11°C° 0.6 mm 4 m/s 731 mmHg 82%
16:00 +11°C° 0.2 mm 4 m/s 731 mmHg 83%
17:00 +10°C° 0.2 mm 3 m/s 732 mmHg 84%
18:00 +10°C° 0.2 mm 3 m/s 732 mmHg 85%
19:00 +9°C° 0.1 mm 3 m/s 732 mmHg 87%
20:00 +9°C° 0.1 mm 3 m/s 733 mmHg 89%
21:00 +7°C° 0.1 mm 4 m/s 733 mmHg 92%
22:00 +7°C° 0.1 mm 4 m/s 734 mmHg 91%
23:00 +7°C° 0.1 mm 5 m/s 734 mmHg 90%

Depois de amanhã, 11 Maio, Terça-feira

Tempo Temperatura Precipitação Vento Pressão Humidade
00:00 +7°C° 0.1 mm 5 m/s 735 mmHg 89%
01:00 +6°C° 0 mm 5 m/s 736 mmHg 89%
02:00 +6°C° 0 mm 5 m/s 736 mmHg 90%
03:00 +5°C° 0 mm 4 m/s 737 mmHg 90%
04:00 +5°C° 0 mm 4 m/s 737 mmHg 89%
05:00 +5°C° 0 mm 4 m/s 738 mmHg 88%
06:00 +5°C° 0 mm 3 m/s 739 mmHg 87%
07:00 +7°C° 0 mm 3 m/s 739 mmHg 79%
08:00 +9°C° 0 mm 3 m/s 740 mmHg 72%
09:00 +10°C° 0 mm 4 m/s 740 mmHg 65%
10:00 +11°C° 0 mm 4 m/s 740 mmHg 62%
11:00 +12°C° 0 mm 4 m/s 740 mmHg 59%
12:00 +13°C° 0 mm 3 m/s 741 mmHg 56%
13:00 +12°C° 0.1 mm 4 m/s 741 mmHg 59%
14:00 +12°C° 0.1 mm 4 m/s 740 mmHg 62%
15:00 +12°C° 0.1 mm 4 m/s 740 mmHg 65%
16:00 +11°C° 0.6 mm 4 m/s 741 mmHg 73%
17:00 +10°C° 0.6 mm 4 m/s 741 mmHg 80%
18:00 +8°C° 0.6 mm 4 m/s 741 mmHg 88%
19:00 +7°C° 1.9 mm 4 m/s 741 mmHg 91%
20:00 +7°C° 1.9 mm 4 m/s 741 mmHg 94%
21:00 +6°C° 1.9 mm 4 m/s 741 mmHg 97%
22:00 +7°C° 2.3 mm 3 m/s 740 mmHg 97%
23:00 +7°C° 2.3 mm 3 m/s 740 mmHg 97%

12 Maio, Quarta-feira

Tempo Temperatura Precipitação Vento Pressão Humidade
00:00 +7°C° 2.3 mm 3 m/s 739 mmHg 97%
01:00 +7°C° 0.3 mm 2 m/s 739 mmHg 97%
02:00 +7°C° 0.3 mm 2 m/s 740 mmHg 96%
03:00 +6°C° 0.3 mm 2 m/s 740 mmHg 96%
04:00 +6°C° 0 mm 2 m/s 740 mmHg 95%
05:00 +6°C° 0 mm 2 m/s 740 mmHg 94%
06:00 +7°C° 0 mm 3 m/s 740 mmHg 94%
07:00 +8°C° 0 mm 3 m/s 740 mmHg 91%
08:00 +8°C° 0 mm 3 m/s 740 mmHg 89%
09:00 +9°C° 0 mm 3 m/s 740 mmHg 87%
10:00 +10°C° 0.2 mm 3 m/s 741 mmHg 85%
11:00 +10°C° 0.2 mm 4 m/s 741 mmHg 84%
12:00 +11°C° 0.2 mm 4 m/s 741 mmHg 82%
13:00 +11°C° 0.3 mm 4 m/s 741 mmHg 82%
14:00 +11°C° 0.3 mm 4 m/s 741 mmHg 82%
15:00 +11°C° 0.3 mm 4 m/s 741 mmHg 81%
16:00 +10°C° 0.2 mm 4 m/s 741 mmHg 83%
17:00 +10°C° 0.2 mm 4 m/s 741 mmHg 85%
18:00 +8°C° 0.2 mm 4 m/s 741 mmHg 87%
19:00 +9°C° 0.1 mm 3 m/s 742 mmHg 89%
20:00 +8°C° 0.1 mm 3 m/s 742 mmHg 92%
21:00 +7°C° 0.1 mm 2 m/s 742 mmHg 94%
22:00 +7°C° 0 mm 2 m/s 742 mmHg 94%
23:00 +7°C° 0 mm 2 m/s 742 mmHg 94%

13 Maio, Quinta-feira

Tempo Temperatura Precipitação Vento Pressão Humidade
00:00 +7°C° 0 mm 2 m/s 742 mmHg 94%
01:00 +7°C° 0 mm 2 m/s 742 mmHg 94%
02:00 +7°C° 0 mm 2 m/s 742 mmHg 94%
03:00 +7°C° 0 mm 2 m/s 742 mmHg 94%
04:00 +7°C° 0 mm 2 m/s 743 mmHg 94%
05:00 +7°C° 0 mm 2 m/s 743 mmHg 93%
06:00 +8°C° 0 mm 2 m/s 743 mmHg 92%
07:00 +8°C° 0.1 mm 2 m/s 743 mmHg 91%
08:00 +9°C° 0.1 mm 3 m/s 743 mmHg 90%
09:00 +9°C° 0.1 mm 3 m/s 743 mmHg 89%
10:00 +9°C° 0.4 mm 3 m/s 743 mmHg 88%
11:00 +10°C° 0.4 mm 3 m/s 744 mmHg 88%
12:00 +10°C° 0.4 mm 4 m/s 744 mmHg 87%
13:00 +10°C° 0.3 mm 4 m/s 744 mmHg 86%
14:00 +10°C° 0.3 mm 4 m/s 744 mmHg 84%
15:00 +10°C° 0.3 mm 4 m/s 744 mmHg 83%
16:00 +10°C° 0.1 mm 4 m/s 744 mmHg 82%
17:00 +10°C° 0.1 mm 4 m/s 744 mmHg 82%
18:00 +8°C° 0.1 mm 4 m/s 745 mmHg 81%
19:00 +8°C° 0 mm 3 m/s 745 mmHg 85%
20:00 +7°C° 0 mm 3 m/s 745 mmHg 88%
21:00 +6°C° 0 mm 2 m/s 745 mmHg 91%
22:00 +5°C° 0 mm 2 m/s 745 mmHg 92%
23:00 +5°C° 0 mm 2 m/s 745 mmHg 93%

14 Maio, Sexta-feira

Tempo Temperatura Precipitação Vento Pressão Humidade
00:00 +5°C° 0 mm 1 m/s 745 mmHg 94%
01:00 +5°C° 0 mm 1 m/s 745 mmHg 94%
02:00 +4°C° 0 mm 1 m/s 745 mmHg 94%
03:00 +3°C° 0 mm 2 m/s 745 mmHg 94%
04:00 +5°C° 0 mm 1 m/s 745 mmHg 92%
05:00 +5°C° 0 mm 1 m/s 746 mmHg 90%
06:00 +6°C° 0 mm 1 m/s 746 mmHg 88%
07:00 +7°C° 0 mm 1 m/s 746 mmHg 82%
08:00 +9°C° 0 mm 1 m/s 746 mmHg 76%
09:00 +10°C° 0 mm 1 m/s 746 mmHg 70%
10:00 +11°C° 0 mm 1 m/s 746 mmHg 67%
11:00 +12°C° 0 mm 1 m/s 745 mmHg 64%
12:00 +13°C° 0 mm 1 m/s 745 mmHg 61%
13:00 +13°C° 0 mm 2 m/s 745 mmHg 62%
14:00 +13°C° 0 mm 2 m/s 745 mmHg 64%
15:00 +12°C° 0 mm 3 m/s 745 mmHg 65%
16:00 +12°C° 0 mm 3 m/s 745 mmHg 68%
17:00 +11°C° 0 mm 3 m/s 745 mmHg 71%
18:00 +12°C° 0 mm 2 m/s 745 mmHg 73%
19:00 +9°C° 0 mm 2 m/s 745 mmHg 78%
20:00 +8°C° 0 mm 2 m/s 745 mmHg 82%
21:00 +8°C° 0 mm 1 m/s 746 mmHg 87%
22:00 +8°C° 0 mm 1 m/s 746 mmHg 86%
23:00 +8°C° 0 mm 1 m/s 746 mmHg 84%
Mostrar mais

Necessitamos do seu Consentimento

A Meteoprog e os seus Fornecedores de Serviços podem armazenar e aceder a dados pessoais como cookies, identificadores do dispositivo ou outras tecnologias semelhantes existentes no seu dispositivo e processar estes dados para personalizar conteúdos e anúncios, assim como funcionalidades nas redes sociais e análise de tráfego.

  • Armazenar e/ou aceder a informações no seu dispositivo

    Os cookies, identificadores do dispositivo ou outras informações podem ser armazenados ou acedidos no seu dispositivo, para os fins acima indicados.

  • Anúncios e conteúdos personalizados, medição de anúncios e conteúdos, dados sobre o público-alvo e desenvolvimento de produtos

    Os anúncios e os conteúdos podem ser personalizados com base num perfil. Podem ser adicionados dados adicionais para uma maior personalização dos anúncios e dos conteúdos. A eficácia dos anúncios e dos conteúdos pode ser medida. Podem ser obtidas informações sobre o público que visualizou os anúncios e os conteúdos. Estes dados podem ser usados para desenvolver ou melhorar sistemas, softwares ou a experiência do utilizador.

Ao clicar em "Eu concordo”, permitirá o uso de cookies, identificadores do dispositivo e web beacons mencionados ou outras tecnologias semelhantes. As configurações do navegador do seu dispositivo podem ser alteradas.

Para certos fins, podem ser invocados interesses legítimos ao invés de consentimento. Pode ler mais informação sobre este assunto na nossa Política de Privacidade e Cookies.